#timestamp,LO_Frequency,Hit,StdDev 
1657198815.6,286046999.6,N
1657198835.5,286046997.7,N
1657198855.3,286046997.6,N
1657198875.2,286046995.5,N
1657198895.9,286046993.3,Y
1657198915.7,286046997.4,P
1657198935.6,286046997.6,P
1657198955.4,286046995.3,P
1657198975.3,286046995.6,Y
1657198995.1,286046998.9,P
1657198996.0,286046998.9,N
1657199015.8,286046999.4,N
1657199035.7,286046997.3,Y
1657199055.5,286046999.0,P
1657199075.3,286046998.3,P
1657199095.2,286046996.9,P
1657199115.0,286046999.2,N
1657199115.9,286046999.2,N
1657199135.8,286046997.1,Y
1657199155.6,286046999.0,P
1657199175.4,286046998.8,P
1657199195.3,286046998.3,P
1657199215.1,286046999.0,Y
1657199235.9,286046998.2,P
1657199255.7,286046998.8,P
1657199275.5,286047000.6,N
1657199295.4,286046998.2,N
1657199315.2,286046998.2,N
1657199335.0,286046998.5,N
1657199335.9,286046998.5,N
1657199355.8,286046998.6,N
1657199375.6,286046998.2,N
1657199395.5,286047001.1,N
1657199415.3,286046998.7,N
1657199435.1,286046999.4,N
1657199455.9,286046998.6,N
1657199475.7,286047000.7,N
1657199495.5,286047000.7,N
1657199515.4,286046998.1,N
1657199535.2,286046999.8,N
1657199555.0,286047002.5,N
1657199556.0,286047002.5,N
1657199575.8,286047000.0,N
1657199595.6,286047002.6,N
1657199615.5,286047001.4,N
1657199635.3,286047001.7,N
1657199655.1,286047004.4,N
1657199675.9,286047003.7,N
1657199695.7,286047003.8,N
1657199715.6,286047005.5,N
1657199735.4,286047003.8,N
1657199755.2,286047003.5,N
1657199775.1,286047003.8,N
1657199776.0,286047003.8,N
1657199795.8,286047003.8,N
1657199815.6,286047004.3,N
1657199835.5,286047004.0,N
1657199855.3,286047001.3,N
1657199875.2,286047004.1,N
1657199895.9,286047003.6,N
1657199915.7,286047003.0,N
1657199935.6,286047005.1,N
1657199955.4,286047007.6,Y
1657199975.3,286047003.8,P
1657199995.1,286047003.6,P
1657199996.0,286047003.6,P
1657200015.8,286047003.2,Y
1657200035.7,286047002.4,P
1657200055.5,286047000.1,N
1657200075.3,286047002.6,N
1657200095.2,286047002.2,N
1657200115.0,286047002.3,N
1657200115.9,286047002.3,N
1657200135.8,286047002.0,N
1657200155.6,286047001.6,N
1657200175.4,286047001.3,N
1657200195.3,286047004.3,Y
1657200215.1,286046999.7,P
1657200235.8,286047001.0,N
1657200255.7,286047000.3,N
1657200275.5,286047000.4,N
1657200295.4,286047000.0,N
1657200315.2,286047002.7,Y
1657200335.0,286047002.1,P
1657200335.9,286047002.1,N
1657200355.8,286047002.1,N
1657200375.6,286047001.8,N
1657200395.4,286047002.2,Y
1657200415.3,286047000.9,P
1657200435.1,286047000.3,N
1657200455.9,286047000.1,N
1657200475.7,286047000.2,N
1657200495.5,286047000.1,N
1657200515.4,286047002.8,Y
1657200535.2,286046999.9,P
1657200555.0,286047000.4,N
1657200555.9,286047000.4,N
1657200575.8,286046998.6,Y
1657200595.6,286046998.2,P
1657200615.5,286046998.8,N
1657200635.3,286046998.6,N
1657200655.1,286046998.6,N
1657200675.9,286046998.8,N
1657200695.7,286046998.4,N
1657200715.6,286047000.9,N
1657200735.4,286047001.2,N
1657200755.2,286047001.1,N
1657200775.1,286047000.7,N
1657200776.0,286047000.7,N
1657200795.8,286047000.0,N
1657200815.6,286046999.8,N
1657200835.5,286047002.7,N
1657200855.3,286047002.7,N
1657200875.2,286047002.1,N
1657200895.9,286047002.2,N
1657200915.7,286047002.4,N
1657200935.6,286047002.1,N
1657200955.4,286047001.5,N
1657200975.3,286047002.2,N
1657200995.1,286046999.9,N
1657200996.0,286046999.9,N
1657201015.8,286047000.1,N
1657201035.7,286046999.9,N
1657201055.5,286047002.8,N
1657201075.3,286047002.3,N
1657201095.2,286047002.7,N
1657201115.0,286047000.4,N
1657201115.9,286047000.4,N
1657201135.7,286047000.5,N
1657201155.6,286047000.5,N
1657201175.4,286047000.4,N
1657201195.3,286047000.3,N
1657201215.1,286047000.7,N
1657201216.0,286047000.7,N
1657201235.8,286047000.4,N
1657201255.7,286047000.7,N
1657201275.5,286047000.8,N
1657201295.3,286047001.0,N
1657201315.2,286046999.7,N
1657201335.0,286047002.7,N
1657201335.9,286047002.7,N
1657201355.8,286047002.5,N
1657201375.6,286047002.8,N
1657201395.4,286047000.3,N
1657201415.3,286047000.7,N
1657201435.1,286047001.1,N
1657201455.8,286046998.1,N
1657201475.7,286047000.7,N
1657201495.5,286047000.2,N
1657201515.4,286047002.3,N
1657201535.2,286047001.6,N
1657201555.0,286047002.8,N
1657201555.9,286047002.8,N
1657201575.8,286047002.6,N
1657201595.6,286047002.8,N
1657201615.4,286047000.1,N
1657201635.3,286047001.9,N
1657201655.1,286047001.8,N
1657201675.9,286047003.9,Y
1657201695.7,286047002.7,P
1657201715.5,286047002.1,N
1657201735.4,286047002.6,P
1657201755.2,286047002.8,Y
1657201775.1,286046998.1,P
1657201776.0,286046998.1,N
1657201795.8,286047000.9,N
1657201815.6,286047000.7,N
1657201835.5,286047000.9,N
1657201855.3,286047000.1,N
1657201875.1,286047000.9,N
1657201895.9,286047000.4,N
1657201915.7,286047001.0,N
1657201935.6,286047001.1,N
1657201955.4,286047000.8,N
1657201975.2,286047001.0,N
1657201995.1,286047000.3,N
1657201996.0,286047000.3,N
1657202015.8,286047000.9,N
1657202035.6,286047001.0,N
1657202055.5,286047001.2,N
1657202075.3,286047001.2,N
1657202095.1,286046998.2,N
1657202115.9,286046998.5,N
1657202135.7,286046998.6,N
1657202155.6,286046998.1,N
1657202175.4,286046998.6,N
1657202195.2,286046998.1,N
1657202215.1,286046998.4,N
1657202216.0,286046998.4,N
1657202235.8,286046998.9,N
1657202255.6,286046999.2,N
1657202275.5,286046998.7,N
1657202295.3,286046998.9,N
1657202315.2,286047001.1,N
1657202335.9,286047000.7,N
1657202355.7,286047001.1,N
1657202375.6,286046998.1,N
1657202395.4,286047001.1,N
